Tracking 34094 objects as of 11-May-2026
HD Live streaming from Space Station
objects crossing your sky now

STARLINK-34502

Track STARLINK-34502 now!
10-day predictions
STARLINK-34502 is classified as:


NORAD ID: 64680
Int'l Code: 2025-139S
Perigee: 469.0 km
Apogee: 470.6 km
Inclination: 53.2 °
Period: 93.8 minutes
Semi major axis: 6840 km
RCS: Unknown
Launch date: June 28, 2025
Source: United States (US)
Launch site: AIR FORCE EASTERN TEST RANGE (AFETR)
Your satellite tracking list
Your tracking list is empty




NASA's NSSDC Master Catalog

Two Line Element Set (TLE):
1 64680U 25139S   26130.47898407  .00016724  00000-0  50477-3 0  9999
2 64680  53.1591 199.3728 0001174  97.0138 263.0998 15.34414058 49757
Source of the keplerian elements: AFSPC